Lexington Weather

Lexington, Massachusetts, USA

46°F
10/22/2019 1:56am 
  • Lexington Conditions: Partly cloudy
  • Temperature: 46.0°F / 7.8°CWarmer 0.3°F than last hour.
  • Dew Point: 44.1°FIncreased 0.9°Fsince last hour.
  • Relative Humidity: 93%Increased 2.0% since last hour.
  • Wind: Calm, 10-min avg: Calm, gust: None
  • Barometer: 30.12 in Steady
  • Visibility: 9 miles
  • Rain Today: 0.00 in
  •   

Regional Weather Roundup
for Boston, MA

        
000
ASUS41 KBOX 210101
RWRBOX

REGIONAL WEATHER ROUNDUP
NATIONAL WEATHER SERVICE BOSTON/NORTON MA
900 PM EDT SUN OCT 20 2019

NOTE:  "FAIR" INDICATES FEW OR NO CLOUDS BELOW 12,000 FEET WITH NO 
SIGNIFICANT WEATHER AND/OR OBSTRUCTIONS TO VISIBILITY.

MAZALL-210200-
EASTERN MASSACHUSETTS
  
CITY           SKY/WX    TMP DP  RH WIND       PRES   REMARKS
BOSTON         CLOUDY    57  50  77 E8        30.06R                  
BEVERLY        CLOUDY    51  47  86 CALM      30.06R                  
LAWRENCE       CLOUDY    51  47  86 NE3       30.08R                  
BEDFORD        CLOUDY    54  46  74 NW6       30.05R                  
BLUE HILL      NOT AVBL                                               
NORWOOD        CLOUDY    54  47  77 CALM      30.06R                  
MARSHFIELD     NOT AVBL                                               
PLYMOUTH       CLOUDY    52  47  83 CALM      30.05F                  
TAUNTON        CLOUDY    53  47  79 CALM      30.05S                  
NEW BEDFORD    LGT RAIN  54  48  80 NE5       30.03F                  
$$

MAZALL-210200-
CAPE COD AND THE ISLANDS
  
CITY           SKY/WX    TMP DP  RH WIND       PRES   REMARKS
FALMOUTH       CLOUDY    54  48  82 SE5       30.05S                  
HYANNIS        NOT AVBL                                               
CHATHAM        NOT AVBL                                               
PROVINCETOWN   FAIR      54  47  77 SE6         N/A                   
NANTUCKET      LGT RAIN  54  51  90 E8        30.04F                  
MARTHAS VNYRD  LGT RAIN  54  51  90 E7        30.03F                  
$$
 
MAZALL-210200-
CENTRAL AND WESTERN MASSACHUSETTS
  
CITY           SKY/WX    TMP DP  RH WIND       PRES   REMARKS
WORCESTER      LGT RAIN  49  47  93 N3        30.05F                  
FITCHBURG      LGT RAIN  50  48  93 NW5       30.07S                  
ORANGE         LGT RAIN  51  49  92 CALM      30.06S FOG              
SPRINGFIELD    CLOUDY    51  49  94 CALM      30.04S                  
WESTFIELD      CLOUDY    50  48  93 N3        30.05R                  
NORTH ADAMS    FAIR      48  45  89 CALM      30.04R                  
PITTSFIELD     CLOUDY    49  47  93 CALM      30.02S FOG              
$$
 
RIZALL-210200-
RHODE ISLAND
  
CITY           SKY/WX    TMP DP  RH WIND       PRES   REMARKS
PROVIDENCE     LGT RAIN  54  50  86 NE5       30.05S                  
NEWPORT        LGT RAIN  55  49  80 NE5       30.03S                  
BLOCK ISLAND   LGT RAIN  56  52  86 E9        30.02F                  
SMITHFIELD     LGT RAIN N/A N/A N/A NE5       30.05S                  
WESTERLY       LGT RAIN  55  53  93 N5        30.03F                  
$$
 
CTZALL-210200-
CONNECTICUT
  
CITY           SKY/WX    TMP DP  RH WIND       PRES   REMARKS
BRADLEY INTL   LGT RAIN  53  49  86 NE3       30.04S                  
HARTFORD       LGT RAIN  52  47  83 E5        30.04S                  
BRIDGEPORT     LGT RAIN  54  50  86 NE9       30.01S                  
DANBURY        CLOUDY    52  49  89 E7        30.02S                  
GROTON         NOT AVBL                                               
NEW HAVEN      CLOUDY    55  51  86 NE7       30.02F                  
CHESTER        LGT RAIN  52  50  93 N6        30.02F                  
MERIDEN        LGT RAIN  52  50  93 N3        30.03S                  
WILLIMANTIC    LGT RAIN  51  50  96 NE5       30.05F                  
OXFORD         CLOUDY    50  49  96 NE7       30.03S                  
$$

MEZ002-015-021-024-NHZ003-005-008-011-012-014-VTZ005-008-210200-
NORTHERN NEW ENGLAND
  
CITY           SKY/WX    TMP DP  RH WIND       PRES   REMARKS
PORTLAND ME    FAIR      50  45  83 CALM      30.08R                  
BANGOR ME      CLOUDY    46  42  86 SE5       30.08F                  
CONCORD NH     LGT RAIN  49  47  93 CALM      30.07S                  
MANCHESTER NH  LGT RAIN  53  49  86 CALM      30.06R                  
NASHUA NH      LGT RAIN  50  50 100 CALM      30.08R                  
PORTSMOUTH NH  CLOUDY    51  48  88 CALM      30.06R                  
JAFFREY NH     LGT RAIN  49  46  90 CALM      30.06S                  
KEENE NH       CLOUDY    49  49 100 CALM      30.05F                  
BURLINGTON VT  CLOUDY    50  43  77 S5        30.01R                  
MT. WASHINGTON NOT AVBL                                               
$$

NYZ052-076-210200-
EASTERN NEW YORK
  
CITY           SKY/WX    TMP DP  RH WIND       PRES   REMARKS
ALBANY         MOCLDY    48  45  89 CALM      30.04S FOG              
NEW YORK CITY  LGT RAIN  54  49  83 E9        29.99S                  
$$
 
ANZALL-210200-
MARINE OBSERVATIONS
  
STATION/POSITION TIME  TEMP    WIND        PRES    VSBY  WAVE
                       AIR SEA DIR/SP/G                  HT/PER
                 (UTC) (F)     (DEG/KT/KT) (MB)    (MI)  (FT/S)
BOSTON BUOY      2350   57 57  120/  6/  8 1016.9          1/12
BUZZARDS BAY     0000   56      90/ 12/ 12 1017.4F
NANTUCKET SOUND  0040      56              1017.2
MASS BAY-STELLWA 0004   56 56  130/  6/  6 1017.3R  1 7/8  1
ISLE OF SHOALS   0000   54     140/  5/  6 1017.6R
S OF BLOCK IS    0030      60                N/A           2/ 3
$$

......................KEY.........................
  SKY/WX - SKY CONDITION/PRESENT WEATHER
  TMP    - TEMPERATURE IN FAHRENHEIT
  DWPT   - DEWPOINT IN FAHRENHEIT
  RH     - RELATIVE HUMIDITY IN PERCENT
  WIND   - DIRECTION AND SPEED IN MPH
  PRES   - MEAN SEA LEVEL PRESSURE IN INCHES OF HG
  WCI    - WIND CHILL INDEX
  VSB    - VISIBILITY IN MILES
  HX     - HEAT INDEX
  TC     - TEMPERATURE IN CELSIUS
  VRB    - VARIABLE WIND DIRECTION
  N/A    - NOT AVAILABLE
  
      

Other recent Regional Weather Roundups

Tue Oct 22, 1:10am

Tue Oct 22, 1:00am

Tue Oct 22, 12:10am

Tue Oct 22, 12:00am

Mon Oct 21, 11:10pm

Mon Oct 21, 11:00pm

Mon Oct 21, 10:10pm

Mon Oct 21, 10:01pm

Mon Oct 21, 9:10pm

Mon Oct 21, 9:00pm

Mon Oct 21, 8:10pm

Mon Oct 21, 8:00pm

Mon Oct 21, 7:10pm

Mon Oct 21, 7:01pm

Mon Oct 21, 6:10pm

Mon Oct 21, 6:01pm

Mon Oct 21, 5:10pm

Mon Oct 21, 5:01pm

Mon Oct 21, 4:10pm

Mon Oct 21, 4:00pm

Mon Oct 21, 3:10pm

Mon Oct 21, 3:01pm

Mon Oct 21, 2:10pm

Mon Oct 21, 2:00pm

Mon Oct 21, 1:10pm

Mon Oct 21, 1:01pm

Mon Oct 21, 12:10pm

Mon Oct 21, 12:00pm

Mon Oct 21, 11:10am

Mon Oct 21, 11:00am

Mon Oct 21, 10:10am

Mon Oct 21, 10:00am

Mon Oct 21, 9:10am

Mon Oct 21, 9:00am

Mon Oct 21, 7:10am

Mon Oct 21, 7:00am

Mon Oct 21, 6:10am

Mon Oct 21, 6:00am

Mon Oct 21, 5:10am

Mon Oct 21, 5:00am

Mon Oct 21, 4:10am

Mon Oct 21, 4:00am

Mon Oct 21, 3:10am

Mon Oct 21, 3:00am

Mon Oct 21, 2:10am

Mon Oct 21, 2:01am

Mon Oct 21, 1:10am

Mon Oct 21, 1:00am

Mon Oct 21, 12:10am

Mon Oct 21, 12:00am

Sun Oct 20, 11:10pm

Sun Oct 20, 11:00pm

Sun Oct 20, 10:10pm

Sun Oct 20, 10:00pm

Sun Oct 20, 9:10pm

Sun Oct 20, 8:10pm

Sun Oct 20, 8:00pm

Sun Oct 20, 7:10pm

Sun Oct 20, 7:01pm

Sun Oct 20, 6:10pm

Sun Oct 20, 6:00pm

Sun Oct 20, 5:10pm

Sun Oct 20, 5:00pm

Sun Oct 20, 4:10pm

Sun Oct 20, 4:00pm

Sun Oct 20, 3:10pm

Sun Oct 20, 3:00pm

Sun Oct 20, 2:10pm

Sun Oct 20, 2:01pm

Sun Oct 20, 1:10pm

Sun Oct 20, 1:01pm

Sun Oct 20, 12:10pm

Sun Oct 20, 12:00pm

Sun Oct 20, 11:10am

Sun Oct 20, 11:00am

Sun Oct 20, 10:10am

Sun Oct 20, 10:00am

Sun Oct 20, 9:10am

Sun Oct 20, 9:00am

Sun Oct 20, 8:10am

Sun Oct 20, 8:00am

Sun Oct 20, 7:10am

Sun Oct 20, 7:00am

Sun Oct 20, 6:10am

Sun Oct 20, 6:00am

Sun Oct 20, 5:10am

Sun Oct 20, 5:00am

Sun Oct 20, 4:10am

Sun Oct 20, 4:00am

Sun Oct 20, 3:10am

Sun Oct 20, 3:00am

Sun Oct 20, 2:10am

Sun Oct 20, 2:00am

Sun Oct 20, 1:10am

Sun Oct 20, 1:00am

Sun Oct 20, 12:10am

Sun Oct 20, 12:00am

Sat Oct 19, 11:10pm

Sat Oct 19, 11:00pm

Sat Oct 19, 10:10pm

Sat Oct 19, 10:00pm

Sat Oct 19, 9:10pm

Sat Oct 19, 9:00pm

Sat Oct 19, 8:10pm

Sat Oct 19, 8:00pm

Sat Oct 19, 7:10pm

Sat Oct 19, 7:00pm

Sat Oct 19, 6:10pm

Sat Oct 19, 6:00pm

Sat Oct 19, 5:10pm

Sat Oct 19, 5:00pm

Sat Oct 19, 4:10pm

Sat Oct 19, 4:00pm

Sat Oct 19, 3:10pm

Sat Oct 19, 3:01pm

Sat Oct 19, 2:10pm

Sat Oct 19, 2:00pm

Sat Oct 19, 1:10pm

Sat Oct 19, 1:01pm

Sat Oct 19, 12:10pm

Sat Oct 19, 12:00pm

Sat Oct 19, 11:10am

Sat Oct 19, 11:01am

Sat Oct 19, 10:10am

Sat Oct 19, 10:00am

Sat Oct 19, 9:10am

Sat Oct 19, 9:00am

Sat Oct 19, 8:10am

Sat Oct 19, 8:00am

Sat Oct 19, 7:10am

Sat Oct 19, 7:00am

Sat Oct 19, 6:10am

Sat Oct 19, 6:00am

Sat Oct 19, 5:10am

Sat Oct 19, 5:00am

Sat Oct 19, 4:10am

Sat Oct 19, 4:00am

Sat Oct 19, 3:10am

Sat Oct 19, 3:00am

Sat Oct 19, 2:10am

Sat Oct 19, 2:00am

Meta data:

ID: 380dc0f7-9332-4485-b8dd-76945ddb37a1
Link: https://api.weather.gov/products/380dc0f7-9332-4485-b8dd-76945ddb37a1